x

Olcott Harbor, Ny (olcn6) Weather Station

8:00am - Sat 1st Oct 2016 All times are CDT. -5 hours from GMT.

  • Wind
    15mph, 18mph gusts
  • Air Temp 51°f
  • Sea Pressure 1022.7mb
  • Olcott Harbor, Ny
  • Olcott Harbor, Ny

More Historic Weather Station data

Upgrade to MSW Pro to gain access to the past 30 days of data for over 8000 Wavebouys and Weather Stations around the globe.

Join Pro

Comparision Forecast

View Surf forecast
   
Sat 10/01 8:00am 15 18 mph 1022.7mb 51f
7:50am 16 17 mph 1022.7mb 51f
7:40am 15 17 mph 1023mb 51f
7:30am 15 17 mph 1022.7mb 51f
7:20am 15 16 mph 1022.7mb 51f
7:10am 11 13 mph 1022.7mb 51f
7:00am 13 14 mph 1023mb 51f
6:50am 13
mph
1022.7mb 52f
6:40am 11 13 mph 1022.7mb 52f
6:30am 13 16 mph 1023mb 51f
6:20am 15 17 mph 1022.7mb 51f
6:10am 15
mph
1022.7mb 51f
6:00am 13 14 mph 1022.7mb 51f
5:50am 13
mph
1023mb 51f
5:40am 10 11 mph 1023mb 51f
5:30am 10 13 mph 1023mb 51f
5:20am 11
mph
1022.7mb 51f
5:10am 10 11 mph 1022.7mb 51f
5:00am 10 11 mph 1022.7mb 49f
4:50am 9 14 mph 1022.7mb 49f
4:40am 13 14 mph 1022.4mb 50f
4:30am 13 14 mph 1022.7mb 49f
4:20am 13 15 mph 1022.7mb 48f
4:10am 14 16 mph 1022.7mb 48f
4:00am 15 16 mph 1022.4mb 47f
3:50am 13
mph
1022.7mb 47f
3:40am 13 15 mph 1022.7mb 48f
3:30am 11 13 mph 1023mb 48f
3:20am 11 16 mph 1023mb 48f
3:10am 16 17 mph 1022.7mb 48f
3:00am 16 20 mph 1022.7mb 48f
2:50am 16 17 mph 1022.7mb 47f
2:40am 15 16 mph 1023mb 47f
2:30am 15 18 mph 1023mb 47f
2:20am 15 16 mph 1023mb 47f
2:10am 13 14 mph 1023mb 47f
2:00am 14 17 mph 1023mb 46f
1:50am 16
mph
1023mb 48f
1:40am 13 15 mph 1023.7mb 49f
1:30am 10 15 mph 1023.7mb 55f
1:20am 10 17 mph 1023.7mb 55f
1:10am 11 16 mph 1024mb 55f
1:00am 11 17 mph 1024mb 55f
12:50am 13 18 mph 1023.7mb 55f
12:40am 14 20 mph 1024mb 55f
12:30am 15 17 mph 1024mb 53f
12:20am 14 16 mph 1024mb 49f
12:10am 13 15 mph 1024mb 48f
12:00am 14 16 mph 1024mb 47f
Fri 09/30 11:50pm 14 17 mph 1024mb 48f
11:40pm 14 15 mph 1024mb 47f
11:30pm 14 17 mph 1024.4mb 46f
11:20pm 14 16 mph 1024.4mb 46f
11:10pm 15 16 mph 1024.4mb 46f
11:00pm 15 16 mph 1024.4mb 46f
10:50pm 14 16 mph 1024.7mb 47f
10:40pm 13 15 mph 1024.4mb 50f
10:30pm 11 16 mph 1024.7mb 50f
10:20pm 14 16 mph 1024.7mb 49f
10:10pm 15 18 mph 1024.4mb 50f
10:00pm 14 24 mph 1024.4mb 51f
9:50pm 15 20 mph 1024.7mb 50f
9:40pm 14 18 mph 1024.7mb 50f
9:30pm 16 21 mph 1025.1mb 49f
9:20pm 16 23 mph 1025.1mb 53f
9:10pm 15 20 mph 1025.1mb 53f
9:00pm 14 29 mph 1025.1mb 56f
8:50pm 21 25 mph 1025.1mb 56f
8:40pm 18 25 mph 1025.1mb 57f
8:30pm 20 24 mph 1025.1mb 57f
8:20pm 18 25 mph 1025.4mb 57f
8:10pm 18 23 mph 1025.1mb 51f
8:00pm 17 21 mph 1025.4mb 48f
7:50pm 20 21 mph 1025.1mb 48f
7:40pm 21 22 mph 1025.4mb 49f
7:30pm 18 21 mph 1025.4mb 50f
7:20pm 16 20 mph 1025.4mb 52f
7:10pm 18 21 mph 1025.1mb 50f
7:00pm 18 23 mph 1025.1mb 56f
6:50pm 20 24 mph 1025.1mb 58f
6:40pm 20 23 mph 1025.1mb 55f
6:00pm 21 24 mph 1025.1mb 51f
5:50pm 21 24 mph 1025.1mb 53f
5:40pm 21 23 mph 1025.1mb 53f
5:30pm 20 24 mph 1025.1mb 57f
5:20pm 20 28 mph 1025.1mb 57f
5:10pm 20 29 mph 1025.1mb 55f
5:00pm 20 24 mph 1025.1mb 51f
4:50pm 22 24 mph 1025.1mb 49f
4:40pm 22 24 mph 1024.7mb 49f
4:30pm 23 26 mph 1024.7mb 50f
4:20pm 24 26 mph 1024.7mb 51f
4:10pm 25 29 mph 1024.7mb 52f
4:00pm 26 30 mph 1024.7mb 53f
3:50pm 25 30 mph 1024.4mb 52f
3:40pm 24 29 mph 1024.7mb 51f
3:30pm 24 28 mph 1024.7mb 50f
3:20pm 23 26 mph 1024.7mb 50f
3:10pm 23 26 mph 1024.7mb 50f
3:00pm 24 28 mph 1025.1mb 50f
2:50pm 24 28 mph 1024.7mb 50f
2:40pm 24 30 mph 1024.7mb 50f
2:30pm 25 28 mph 1025.1mb 50f
2:20pm 25 28 mph 1025.1mb 50f
2:10pm 24 28 mph 1025.1mb 50f
2:00pm 25 30 mph 1025.4mb 51f
1:50pm 25 32 mph 1025.4mb 51f
1:40pm 28 31 mph 1025.4mb 50f
1:30pm 25 30 mph 1025.4mb 50f
1:20pm 25 30 mph 1025.4mb 50f
1:10pm 26 30 mph 1025.7mb 50f
1:00pm 26 29 mph 1025.7mb 50f
12:50pm 25 29 mph 1025.7mb 50f
12:40pm 25 28 mph 1026.1mb 50f
12:30pm 24 28 mph 1026.1mb 50f
12:20pm 24 26 mph 1026.4mb 50f
12:10pm 22 25 mph 1026.4mb 50f
12:00pm 22 26 mph 1026.4mb 50f
11:50am 21 25 mph 1026.8mb 50f
11:40am 22 24 mph 1026.8mb 50f
11:30am 21 23 mph 1026.8mb 49f
11:20am 18 21 mph 1027.1mb 49f
11:10am 20 22 mph 1027.1mb 49f
11:00am 21 23 mph 1027.1mb 50f
10:50am 20 22 mph 1027.1mb 52f
10:40am 18 20 mph 1027.1mb 51f
10:30am 16 21 mph 1027.1mb 51f
10:20am 18 22 mph 1027.1mb 51f
10:10am 20 21 mph 1027.1mb 50f
10:00am 13 18 mph 1027.4mb 49f
9:50am 15 20 mph 1027.4mb 49f
9:40am 14 20 mph 1027.4mb -
9:30am 15 17 mph 1027.4mb -
9:20am 14 15 mph 1027.1mb -
9:10am 13 17 mph 1027.4mb -
9:00am 16 18 mph 1027.4mb -
8:50am 16 20 mph 1027.1mb 59f
8:40am 14 17 mph 1027.4mb 54f
8:30am 15 18 mph 1027.4mb 53f
8:20am 16 20 mph 1027.1mb 53f
8:10am 17 21 mph 1027.4mb 58f
8:00am 13 15 mph 1027.4mb 55f
7:50am 13 15 mph 1027.4mb 49f
7:40am 11 15 mph 1027.4mb 48f
7:30am 13 17 mph 1027.1mb 48f
7:20am 14 15 mph 1027.1mb 49f
7:10am 15 16 mph 1027.1mb 49f
7:00am 14 17 mph 1027.1mb 51f
6:50am 15 18 mph 1027.1mb 53f
6:40am 14 17 mph 1027.4mb 55f
6:30am 15 16 mph 1027.1mb 53f
6:20am 13 14 mph 1027.1mb 53f
6:10am 13 15 mph 1027.1mb 52f
6:00am 13 16 mph 1027.1mb 55f
5:50am 15 20 mph 1027.1mb 58f
5:40am 13 15 mph 1027.1mb 56f
5:30am 10 16 mph 1027.1mb 51f
5:20am 14 15 mph 1027.1mb 50f
5:10am 11 14 mph 1027.4mb 50f
5:00am 11 13 mph 1027.1mb 50f
4:50am 11 13 mph 1027.1mb 50f
4:40am 13 15 mph 1027.1mb 53f
4:30am 14 18 mph 1027.4mb 59f
4:20am 14 17 mph 1027.1mb 60f
4:10am 11 16 mph 1027.4mb 60f
4:00am 10 14 mph 1027.4mb 60f
3:50am 11 15 mph 1027.4mb 60f
3:40am 15 21 mph 1026.8mb 60f
3:30am 14 18 mph 1026.8mb 60f
3:20am 11 14 mph 1026.8mb 60f
3:10am 9 16 mph 1026.8mb 55f
3:00am 16 20 mph 1026.4mb 55f
2:50am 16 18 mph 1026.4mb 54f
2:40am 16 23 mph 1026.8mb 58f
2:30am 18 23 mph 1026.8mb 61f
2:20am 18 23 mph 1026.8mb 61f
2:10am 17 22 mph 1027.1mb 61f
2:00am 15 22 mph 1027.1mb 61f
1:50am 16 18 mph 1027.1mb 59f
1:40am 11 15 mph 1027.1mb 53f
1:30am 11 16 mph 1027.1mb 57f
1:20am 8 14 mph 1027.4mb 56f
1:10am 10 15 mph 1027.4mb 57f
1:00am 10 16 mph 1027.4mb 60f
12:50am 9 13 mph 1027.4mb 57f
12:40am 9 10 mph 1027.4mb 53f
12:30am 8 10 mph 1027.4mb 52f
12:20am 6 9 mph 1027.4mb 51f
12:10am 9 13 mph 1027.4mb 50f
12:00am 10 13 mph 1027.4mb 51f
Thu 09/29 11:50pm 11 14 mph 1027.8mb 51f
11:40pm 7 8 mph 1027.8mb 52f
11:30pm 8 10 mph 1027.8mb 51f
11:20pm 8 9 mph 1028.1mb 52f
11:10pm 9 11 mph 1028.1mb 52f
11:00pm 11 14 mph 1027.8mb 53f
10:50pm 14 15 mph 1027.8mb 54f
10:40pm 10 14 mph 1028.1mb 54f
10:30pm 13 14 mph 1027.8mb 56f
10:20pm 10 11 mph 1028.1mb 58f
10:10pm 11 13 mph 1028.1mb 58f
10:00pm 11 16 mph 1028.1mb 59f
9:50pm 11 17 mph 1027.8mb 61f
9:40pm 14 20 mph 1027.8mb 62f
9:30pm 13 17 mph 1028.1mb 61f
9:20pm 14 16 mph 1027.8mb 61f
9:10pm 14 18 mph 1027.8mb 61f
9:00pm 13 17 mph 1027.8mb 60f
8:50pm 14 21 mph 1027.8mb 60f
8:40pm 16 21 mph 1027.8mb 60f
8:30pm 15 23 mph 1027.4mb 60f
8:20pm 15 17 mph 1027.8mb 60f
8:10pm 14 20 mph 1027.8mb 60f
8:00pm 15 21 mph 1027.8mb 60f
7:50pm 16 21 mph 1027.8mb 61f
7:40pm 17 22 mph 1027.4mb 61f
7:30pm 16 21 mph 1027.8mb 61f
7:20pm 17 22 mph 1027.4mb 61f
7:10pm 16 24 mph 1027.4mb 62f
7:00pm 18 23 mph 1027.4mb 62f
6:50pm 20 24 mph 1027.1mb 62f
6:40pm 16 24 mph 1027.4mb 62f
6:30pm 16 21 mph 1027.4mb 62f
6:20pm 16 22 mph 1027.4mb 62f
6:10pm 16 22 mph 1027.4mb 61f
6:00pm 17 26 mph 1027.4mb 61f
5:50pm 18 23 mph 1027.4mb 61f
5:40pm 17 23 mph 1027.4mb 61f
5:30pm 20 23 mph 1027.1mb 60f
5:20pm 17 24 mph 1027.4mb 60f
5:10pm 21 26 mph 1027.1mb 60f
5:00pm 18 23 mph 1027.1mb 60f
4:50pm 21 28 mph 1027.1mb 60f
4:40pm 20 26 mph 1027.1mb 60f
4:30pm 18 24 mph 1026.8mb 61f
4:20pm 20 26 mph 1026.8mb 61f
4:10pm 17 24 mph 1026.4mb 60f
4:00pm 21 25 mph 1026.4mb 60f
3:50pm 22 26 mph 1026.4mb 60f
3:40pm 21 26 mph 1026.8mb 60f
3:30pm 20 28 mph 1026.8mb 60f
3:20pm 22 33 mph 1026.8mb 59f
3:10pm 22 28 mph 1026.4mb 59f
3:00pm 20 28 mph 1026.8mb 59f
2:50pm 22 31 mph 1026.8mb 59f
2:40pm 23 30 mph 1026.8mb 59f
2:30pm 17 26 mph 1026.8mb 60f
2:20pm 25 32 mph 1026.8mb 59f
2:10pm 22 28 mph 1026.8mb 60f
2:00pm 21 30 mph 1026.8mb 60f
1:50pm 22 31 mph 1026.8mb 59f
1:40pm 21 29 mph 1026.8mb 59f
1:30pm 21 31 mph 1027.1mb 60f
1:20pm 26 36 mph 1026.4mb 60f
1:10pm 23 32 mph 1026.8mb 60f
1:00pm 26 33 mph 1026.4mb 60f
12:50pm 23 34 mph 1026.8mb 60f
12:40pm 23 31 mph 1026.4mb 60f
12:30pm 20 26 mph 1027.1mb 60f
12:20pm 25 29 mph 1027.1mb 60f
12:10pm 23 29 mph 1027.1mb 60f
12:00pm 23 31 mph 1027.1mb 60f
11:50am 21 26 mph 1027.1mb 59f
11:40am 22 25 mph 1027.1mb 59f
11:30am 23 28 mph 1027.4mb 59f
11:20am 21 30 mph 1027.1mb 59f
11:10am 20 24 mph 1027.1mb 59f
11:00am 18 28 mph 1027.1mb 59f
10:50am 25 33 mph 1027.1mb 59f
10:40am 21 26 mph 1027.1mb 59f
10:30am 22 31 mph 1026.8mb 58f
10:20am 22 28 mph 1026.4mb 58f
10:10am 20 26 mph 1026.8mb 58f
10:00am 21 29 mph 1026.8mb 58f
9:50am 21 28 mph 1026.8mb 58f
9:40am 21 25 mph 1026.8mb 58f
9:30am 16 24 mph 1026.8mb 58f
9:20am 17 28 mph 1026.8mb 58f
9:10am 22 28 mph 1026.4mb 58f
9:00am 24 30 mph 1026.1mb 58f
8:50am 21 26 mph 1026.4mb 57f
8:40am 22 29 mph 1026.4mb 57f
8:30am 22 28 mph 1026.1mb 57f
8:20am 23 26 mph 1026.4mb 57f
8:10am 22 28 mph 1026.4mb 57f
8:00am 21 29 mph 1026.1mb 57f
7:50am 21 26 mph 1025.7mb 58f
7:40am 20 30 mph 1025.7mb 58f
7:30am 24 30 mph 1025.7mb 59f
7:20am 21 29 mph 1025.4mb 59f
7:10am 21 29 mph 1025.4mb 59f
7:00am 23 29 mph 1025.1mb 59f
6:50am 21 31 mph 1025.1mb 59f
6:40am 24 29 mph 1024.7mb 59f
6:30am 21 28 mph 1024.7mb 59f
6:20am 23 31 mph 1024.4mb 59f
6:10am 24 30 mph 1024.4mb 59f
6:00am 26 33 mph 1023.7mb 59f
5:50am 23 29 mph 1024mb 59f
5:40am 22 26 mph 1023.7mb 59f
5:30am 16 23 mph 1024.4mb 60f
5:20am 20 24 mph 1024mb 60f
5:10am 21 24 mph 1023.7mb 60f
5:00am 23 26 mph 1023.7mb 60f
4:50am 18 26 mph 1023.4mb 60f
4:40am 23 29 mph 1023.4mb 61f
4:30am 23 26 mph 1023.4mb 61f
4:20am 22 25 mph 1023.4mb 61f
4:10am 20 24 mph 1023.4mb 61f
4:00am 18 22 mph 1023.4mb 61f
3:50am 16 21 mph 1023.4mb 61f
3:40am 16 21 mph 1023mb 61f
3:30am 16 23 mph 1023mb 61f
3:20am 16 24 mph 1022.7mb 61f
3:10am 18 29 mph 1022.7mb 62f
3:00am 23 28 mph 1022.4mb 62f
2:50am 24 28 mph 1022.4mb 62f
2:40am 17 22 mph 1022.4mb 62f
2:30am 18 21 mph 1022.4mb 62f
2:20am 17 20 mph 1022.4mb 62f
2:10am 16 21 mph 1022.4mb 62f
2:00am 17 23 mph 1022.4mb 63f
1:50am 20 23 mph 1022mb 63f
1:40am 16 17 mph 1022.4mb 62f
1:30am 14 17 mph 1022.4mb 63f
1:20am 14 16 mph 1022.4mb 63f
1:10am 11 14 mph 1022.4mb 63f
1:00am 11 16 mph 1022.4mb 63f
12:50am 13 16 mph 1022.4mb 64f
12:40am 13 14 mph 1022.4mb 64f
12:30am 11 15 mph 1022.7mb 64f
12:20am 9 14 mph 1022.4mb 64f
12:10am 11 15 mph 1022.4mb 64f
12:00am 11 16 mph 1022.4mb 65f
Wed 09/28 11:50pm 13 16 mph 1022.4mb 65f
11:40pm 9 17 mph 1022mb 65f
11:30pm 11 16 mph 1022mb 65f
11:20pm 10 17 mph 1022mb 65f
11:10pm 9 20 mph 1022mb 66f
11:00pm 13 18 mph 1021.7mb 66f
10:50pm 13 21 mph 1022mb 66f
10:40pm 15 22 mph 1022mb 66f
10:30pm 15 22 mph 1022mb 66f
10:20pm 16 21 mph 1021.7mb 66f
10:10pm 16 21 mph 1021.7mb 66f
10:00pm 18 23 mph 1021.3mb 66f
9:50pm 17 20 mph 1021.3mb 66f
9:40pm 15 21 mph 1021.7mb 66f
9:30pm 15 22 mph 1021.3mb 66f
9:20pm 13 21 mph 1021.3mb 66f
9:10pm 16 21 mph 1021mb 66f
9:00pm 14 22 mph 1021mb 66f
8:50pm 16 23 mph 1020.7mb 66f
8:40pm 15 21 mph 1020.7mb 66f
8:30pm 17 23 mph 1020.7mb 66f
8:20pm 15 21 mph 1020.7mb 67f
8:10pm 18 22 mph 1020.3mb 67f
8:00pm 18 25 mph 1020.3mb 67f
7:50pm 20 29 mph 1020.3mb 67f
7:40pm 22 25 mph 1020.3mb 67f
7:30pm 20 26 mph 1020mb 68f
7:20pm 18 25 mph 1019.6mb 68f
7:10pm 17 24 mph 1019.6mb 68f
7:00pm 21 26 mph 1019.3mb 68f
6:50pm 20 26 mph 1019.3mb 68f
6:40pm 24 28 mph 1019mb 68f
6:30pm 23 28 mph 1019mb 68f
6:20pm 22 26 mph 1019mb 68f
6:10pm 21 25 mph 1019mb 68f
6:00pm 20 24 mph 1018.6mb 69f
5:50pm 20 24 mph 1018.3mb 69f
5:40pm 22 29 mph 1018.3mb 69f
5:30pm 23 29 mph 1017.9mb 69f
5:20pm 21 28 mph 1018.3mb 69f
5:10pm 22 30 mph 1017.9mb 69f
5:00pm 26 33 mph 1017.6mb 70f
4:50pm 23 32 mph 1017.6mb 70f
4:40pm 29 34 mph 1017.3mb 69f
4:30pm 29 36 mph 1017.3mb 69f
4:20pm 28 33 mph 1017.3mb 69f
4:10pm 23 28 mph 1017.6mb 69f
4:00pm 23 29 mph 1017.6mb 69f
3:50pm 28 33 mph 1017.6mb 69f
3:40pm 25 31 mph 1017.6mb 68f
3:30pm 29 33 mph 1017.3mb 68f
3:20pm 28 33 mph 1017.3mb 68f
3:10pm 29 32 mph 1017.3mb 68f
3:00pm 25 30 mph 1017.3mb 67f
2:50pm 25 31 mph 1017.3mb 68f
2:40pm 26 31 mph 1017.3mb 68f
2:30pm 25 30 mph 1017.3mb 68f
2:20pm 25 29 mph 1017.3mb 68f
2:10pm 23 29 mph 1017.3mb 68f
2:00pm 24 28 mph 1017.3mb 68f
1:50pm 18 24 mph 1017.3mb 68f
1:40pm 14 20 mph 1017.6mb 69f
1:30pm 10 16 mph 1017.6mb 74f
1:20pm 14 20 mph 1017.6mb 74f
1:10pm 14 29 mph 1017.6mb 74f
1:00pm 11 23 mph 1017.6mb 74f
12:50pm 15 23 mph 1017.6mb 74f
12:40pm 16 29 mph 1017.3mb 74f
12:30pm 11 24 mph 1017.3mb 74f
12:20pm 14 21 mph 1017.6mb 73f
12:10pm 9 16 mph 1017.6mb 73f
12:00pm 9 21 mph 1017.6mb 74f
11:50am 14 21 mph 1017.6mb 73f
11:40am 10 18 mph 1017.6mb 73f
11:30am 15 20 mph 1017.6mb 73f
11:20am 11 15 mph 1017.3mb 73f
11:10am 8 17 mph 1017.6mb 73f
11:00am 14 20 mph 1017.3mb 73f
10:50am 11 16 mph 1017.3mb 73f
10:40am 7 15 mph 1017.3mb 72f
10:30am 7 13 mph 1017.3mb 71f
10:20am 6 11 mph 1017.3mb 71f
10:10am 7 14 mph 1016.9mb 70f
10:00am 7 9 mph 1016.9mb 70f
9:50am 7 11 mph 1016.9mb 69f
9:40am 5 13 mph 1016.9mb 69f
9:30am 8 14 mph 1016.6mb 69f
9:20am 7 13 mph 1016.6mb 68f
9:10am 8 17 mph 1016.6mb 68f
9:00am 8 13 mph 1016.6mb 67f
8:50am 8 13 mph 1016.6mb 66f
8:40am 9 15 mph 1016.3mb 66f
8:30am 8 14 mph 1016.3mb 65f
8:20am 8 16 mph 1015.9mb 64f
8:10am 10 13 mph 1015.9mb 64f
8:00am 9 14 mph 1015.9mb 63f
7:50am 10 16 mph 1015.9mb 62f
7:40am 10 14 mph 1015.6mb 61f
7:30am 10 14 mph 1015.6mb 60f
7:20am 10 14 mph 1015.6mb 59f
7:10am 10 14 mph 1015.6mb 59f
7:00am 10 14 mph 1015.6mb 58f
6:50am 10 14 mph 1015.6mb 58f
6:40am 11 14 mph 1015.6mb 59f
6:30am 10 13 mph 1015.2mb 59f
6:20am 9 13 mph 1015.2mb 59f
6:10am 9 11 mph 1015.2mb 59f
6:00am 8 11 mph 1014.9mb 59f
5:50am 8 13 mph 1014.9mb 60f
5:40am 10 16 mph 1014.9mb 60f
5:30am 11 17 mph 1014.6mb 60f
5:20am 11 15 mph 1014.6mb 60f
5:10am 10 14 mph 1014.2mb 60f
5:00am 11 15 mph 1014.2mb 60f
4:50am 11 15 mph 1014.2mb 59f
4:40am 10 14 mph 1014.2mb 59f
4:30am 9 13 mph 1014.2mb 59f
4:20am 8 13 mph 1014.2mb 59f
4:10am 9 13 mph 1013.9mb 59f
4:00am 9 11 mph 1013.9mb 59f
3:50am 7 9 mph 1013.9mb 60f
3:40am 6 8 mph 1013.9mb 60f
3:30am 6 9 mph 1013.5mb 61f
3:20am 6 9 mph 1013.5mb 61f
3:10am 7 8 mph 1013.5mb 61f
3:00am 5 7 mph 1013.2mb 61f
2:50am 6 8 mph 1013.5mb 61f
2:40am 7 9 mph 1013.5mb 61f
2:30am 6 8 mph 1013.5mb 61f
2:20am 7 9 mph 1013.5mb 60f
2:10am 7 8 mph 1013.2mb 60f
2:00am 7 9 mph 1013.2mb 60f
1:50am 5 8 mph 1013.2mb 60f
1:40am 5 7 mph 1013.2mb 60f
1:30am 5
mph
1013.2mb 60f
1:20am 5 6 mph 1013.2mb 60f
1:10am 3 6 mph 1013.2mb 60f
1:00am 3 7 mph 1013.2mb 60f
12:50am 6 9 mph 1013.2mb 60f
12:40am 5 7 mph 1013.2mb 60f
12:30am 5 8 mph 1012.9mb 60f
12:20am 5 6 mph 1012.9mb 60f
12:10am 3 8 mph 1012.9mb 60f
12:00am 6 7 mph 1012.9mb 60f
Tue 09/27 11:50pm 5 9 mph 1012.9mb 60f
11:40pm 7 9 mph 1012.9mb 60f
11:30pm 6 8 mph 1012.5mb 60f
11:20pm 6 8 mph 1012.9mb 60f
11:10pm 6 8 mph 1012.9mb 60f
11:00pm 6 8 mph 1012.5mb 59f
10:50pm 5 9 mph 1012.5mb 59f
10:40pm 8 9 mph 1012.5mb 60f
10:30pm 7 9 mph 1012.5mb 60f
10:20pm 6 9 mph 1012.5mb 60f
10:10pm 7 10 mph 1012.5mb 60f
10:00pm 7 10 mph 1012.5mb 60f
9:50pm 9 10 mph 1012.5mb 61f
9:40pm 6 7 mph 1012.2mb 61f
9:30pm 7 14 mph 1012.2mb 61f
9:20pm 6 7 mph 1012.5mb 61f
9:10pm 6 7 mph 1012.5mb 62f
9:00pm 6 7 mph 1012.2mb 62f
8:50pm 6 7 mph 1011.9mb 62f
8:40pm 6 9 mph 1011.9mb 62f
8:30pm 6 13 mph 1011.9mb 62f
8:20pm 8 18 mph 1011.9mb 62f
8:10pm 6 8 mph 1011.5mb 61f
8:00pm 6 9 mph 1011.5mb 61f
7:50pm 6 8 mph 1011.2mb 61f
7:40pm 6 8 mph 1011.5mb 61f
7:30pm 3 6 mph 1011.2mb 61f
7:20pm 5 7 mph 1010.8mb 62f
7:10pm 5 6 mph 1010.8mb 62f
7:00pm 5 6 mph 1010.8mb 61f
6:50pm 3 7 mph 1010.8mb 62f
6:40pm 5
mph
1010.8mb 61f
6:30pm 3 5 mph 1010.5mb 62f
6:20pm 5
mph
1010.5mb 63f
6:10pm 5
mph
1010.5mb 65f
6:00pm 3 6 mph 1010.2mb 66f
5:50pm 5 6 mph 1010.2mb 67f
5:40pm 5 9 mph 1009.8mb 68f
5:30pm 5 8 mph 1009.8mb 69f
5:20pm 5 10 mph 1009.5mb 69f
5:10pm 5 9 mph 1009.5mb 70f
5:00pm 7 13 mph 1009.5mb 70f
4:50pm 11 17 mph 1009.5mb 70f
4:40pm 9 17 mph 1009.1mb 70f
4:30pm 10 21 mph 1009.1mb 70f
4:20pm 11 21 mph 1009.1mb 70f
4:10pm 14 21 mph 1008.8mb 70f
4:00pm 11 22 mph 1008.8mb 70f
3:50pm 15 25 mph 1008.8mb 70f
3:40pm 10 22 mph 1008.5mb 70f
3:30pm 13 25 mph 1008.8mb 70f
3:20pm 13 23 mph 1008.8mb 70f
3:10pm 9 25 mph 1008.8mb 70f